TimeEST,TemperatureF,Dew PointF,Humidity,Sea Level PressureIn,VisibilityMPH,Wind Direction,Wind SpeedMPH,Gust SpeedMPH,PrecipitationIn,Events,Conditions,WindDirDegrees,DateUTC
12:14 AM,37.4,15.8,41,30.10,10.0,NNW,8.1,-,N/A,,Clear,340,2013-01-21 05:14:00
12:35 AM,35.6,19.4,52,30.10,10.0,North,5.8,-,N/A,,Clear,10,2013-01-21 05:35:00
12:57 AM,35.6,17.6,48,30.10,10.0,North,8.1,-,N/A,,Clear,10,2013-01-21 05:57:00
1:18 AM,35.6,17.6,48,30.09,10.0,North,11.5,-,N/A,,Clear,360,2013-01-21 06:18:00
2:01 AM,33.8,17.6,52,30.10,10.0,North,10.4,16.1,N/A,,Clear,10,2013-01-21 07:01:00
2:22 AM,33.8,17.6,52,30.10,10.0,North,9.2,-,N/A,,Clear,10,2013-01-21 07:22:00
2:44 AM,33.8,19.4,56,30.10,10.0,North,9.2,-,N/A,,Clear,10,2013-01-21 07:44:00
3:05 AM,32.0,19.4,60,30.10,10.0,North,11.5,17.3,N/A,,Clear,10,2013-01-21 08:05:00
3:26 AM,32.0,17.6,55,30.11,10.0,North,10.4,-,N/A,,Clear,10,2013-01-21 08:26:00
4:09 AM,32.0,17.6,55,30.11,10.0,NNE,4.6,-,N/A,,Clear,20,2013-01-21 09:09:00
4:30 AM,32.0,17.6,55,30.11,10.0,Calm,Calm,-,N/A,,Clear,0,2013-01-21 09:30:00
4:52 AM,32.0,17.6,55,30.11,10.0,Calm,Calm,-,N/A,,Clear,0,2013-01-21 09:52:00
5:34 AM,32.0,17.6,55,30.10,10.0,NE,4.6,-,N/A,,Clear,40,2013-01-21 10:34:00
5:56 AM,32.0,15.8,51,30.11,10.0,Calm,Calm,-,N/A,,Clear,0,2013-01-21 10:56:00
6:17 AM,32.0,15.8,51,30.12,10.0,Calm,Calm,-,N/A,,Clear,0,2013-01-21 11:17:00
6:38 AM,32.0,17.6,55,30.12,10.0,Calm,Calm,-,N/A,,Clear,0,2013-01-21 11:38:00
7:00 AM,32.0,17.6,55,30.12,10.0,East,4.6,-,N/A,,Clear,100,2013-01-21 12:00:00
7:21 AM,32.0,17.6,55,30.12,10.0,ESE,5.8,-,N/A,,Clear,120,2013-01-21 12:21:00
8:03 AM,32.0,15.8,51,30.12,10.0,East,8.1,-,N/A,,Clear,100,2013-01-21 13:03:00
8:25 AM,32.0,15.8,51,30.12,10.0,ESE,8.1,-,N/A,,Clear,110,2013-01-21 13:25:00
8:46 AM,32.0,14.0,48,30.12,10.0,ESE,6.9,-,N/A,,Clear,110,2013-01-21 13:46:00
9:07 AM,32.0,14.0,48,30.12,10.0,East,5.8,-,N/A,,Clear,90,2013-01-21 14:07:00
9:50 AM,33.8,14.0,44,30.12,10.0,SE,6.9,-,N/A,,Clear,130,2013-01-21 14:50:00
10:11 AM,33.8,14.0,44,30.10,10.0,ESE,9.2,-,N/A,,Clear,120,2013-01-21 15:11:00
10:32 AM,33.8,14.0,44,30.10,10.0,ESE,8.1,-,N/A,,Clear,120,2013-01-21 15:32:00
10:54 AM,35.6,14.0,41,30.09,10.0,East,5.8,-,N/A,,Clear,90,2013-01-21 15:54:00
11:15 AM,35.6,14.0,41,30.07,10.0,SE,6.9,-,N/A,,Clear,130,2013-01-21 16:15:00
11:36 AM,35.6,15.8,44,30.05,10.0,SSE,9.2,-,N/A,,Clear,150,2013-01-21 16:36:00
11:58 AM,35.6,15.8,44,30.03,10.0,South,8.1,-,N/A,,Clear,170,2013-01-21 16:58:00
12:19 PM,35.6,15.8,44,30.01,10.0,SSE,9.2,-,N/A,,Clear,160,2013-01-21 17:19:00
1:01 PM,35.6,17.6,48,29.98,10.0,SSE,9.2,-,N/A,,Clear,160,2013-01-21 18:01:00
1:23 PM,37.4,19.4,48,29.96,10.0,SSE,9.2,-,N/A,,Clear,150,2013-01-21 18:23:00
1:44 PM,39.2,19.4,45,29.94,10.0,South,6.9,-,N/A,,Clear,170,2013-01-21 18:44:00
2:05 PM,41.0,19.4,42,29.93,10.0,SSE,8.1,-,N/A,,Clear,160,2013-01-21 19:05:00
2:27 PM,41.0,19.4,42,29.91,10.0,SSE,9.2,-,N/A,,Clear,150,2013-01-21 19:27:00
2:48 PM,41.0,21.2,45,29.88,10.0,SE,5.8,-,N/A,,Scattered Clouds,140,2013-01-21 19:48:00
3:09 PM,41.0,21.2,45,29.87,10.0,SSE,5.8,-,N/A,,Clear,160,2013-01-21 20:09:00
3:31 PM,41.0,21.2,45,29.86,10.0,SSE,3.5,-,N/A,,Clear,150,2013-01-21 20:31:00
3:52 PM,42.8,24.8,49,29.84,10.0,SSE,6.9,-,N/A,,Clear,160,2013-01-21 20:52:00
4:13 PM,42.8,28.4,57,29.84,10.0,South,6.9,-,N/A,,Clear,170,2013-01-21 21:13:00
4:34 PM,42.8,30.2,61,29.83,10.0,South,4.6,-,N/A,,Clear,170,2013-01-21 21:34:00
4:56 PM,42.8,32.0,66,29.82,10.0,SE,4.6,-,N/A,,Clear,140,2013-01-21 21:56:00
5:17 PM,41.0,32.0,70,29.81,10.0,SE,3.5,-,N/A,,Clear,130,2013-01-21 22:17:00
5:38 PM,41.0,32.0,70,29.81,10.0,Calm,Calm,-,N/A,,Scattered Clouds,0,2013-01-21 22:38:00
5:59 PM,41.0,32.0,70,29.81,10.0,Calm,Calm,-,N/A,,Clear,0,2013-01-21 22:59:00
6:21 PM,41.0,32.0,70,29.82,10.0,NNW,6.9,-,N/A,,Scattered Clouds,340,2013-01-21 23:21:00
6:42 PM,37.4,30.2,75,29.84,10.0,North,18.4,27.6,N/A,,Mostly Cloudy,350,2013-01-21 23:42:00
7:03 PM,37.4,24.8,60,29.86,10.0,North,16.1,23.0,N/A,,Overcast,350,2013-01-22 00:03:00
7:25 PM,33.8,30.2,87,29.87,7.0,North,13.8,24.2,N/A,,Mostly Cloudy,360,2013-01-22 00:25:00
7:46 PM,33.8,32.0,93,29.87,10.0,North,10.4,-,N/A,,Mostly Cloudy,10,2013-01-22 00:46:00
8:07 PM,33.8,32.0,93,29.88,10.0,North,10.4,-,N/A,,Mostly Cloudy,360,2013-01-22 01:07:00
8:28 PM,33.8,32.0,93,29.88,10.0,North,15.0,20.7,N/A,,Scattered Clouds,360,2013-01-22 01:28:00
8:50 PM,35.6,26.6,70,29.89,10.0,NNW,16.1,25.3,N/A,,Scattered Clouds,330,2013-01-22 01:50:00
9:11 PM,33.8,23.0,65,29.90,10.0,NNW,17.3,-,N/A,,Clear,330,2013-01-22 02:11:00
9:32 PM,33.8,21.2,60,29.90,10.0,NW,13.8,24.2,N/A,,Clear,320,2013-01-22 02:32:00
9:54 PM,33.8,19.4,56,29.91,10.0,NW,12.7,24.2,N/A,,Clear,310,2013-01-22 02:54:00
10:15 PM,33.8,19.4,56,29.92,10.0,NW,10.4,23.0,N/A,,Clear,320,2013-01-22 03:15:00
10:36 PM,32.0,17.6,55,29.92,10.0,NW,15.0,20.7,N/A,,Clear,320,2013-01-22 03:36:00
10:58 PM,32.0,17.6,55,29.92,10.0,WNW,15.0,20.7,N/A,,Clear,300,2013-01-22 03:58:00
11:19 PM,32.0,14.0,48,29.92,10.0,NW,18.4,-,N/A,,Clear,310,2013-01-22 04:19:00
11:40 PM,32.0,15.8,51,29.92,10.0,NW,18.4,24.2,N/A,,Clear,310,2013-01-22 04:40:00